Weather History for KMSN - February, 2014

Change the Weather History Date:

Sunday, February 16, 2014

  Actual Average Record
Temperature  
Mean Temperature 16 °F 23 °F  
Max Temperature 21 °F 31 °F 57 °F (1981)
Min Temperature 11 °F 15 °F -18 °F (1936)
Degree Days  
Heating Degree Days 49 42  
Month to date heating degree days 915 699  
Since 1 July heating degree days 5557 5012  
Cooling Degree Days 0 0  
Month to date cooling degree days 0 0  
Year to date cooling degree days 0 0  
Moisture  
Dew Point 10 °F    
Average Humidity 75    
Maximum Humidity 88    
Minimum Humidity 62    
Precipitation  
Precipitation T in 0.06 in 1.28 in (1911)
Month to date precipitation 0.40 0.76  
Year to date precipitation 1.05 1.99  
Snow  
Snow T in 0.40 in 6.10 in (2006)
Month to date snowfall 6.7 6.3  
Since 1 July snowfall 44.7 36.8  
Snow Depth 8.00 in    
Sea Level Pressure  
Sea Level Pressure 30.17 in    
Wind  
Wind Speed 8 mph (NNE)    
Max Wind Speed 14 mph    
Max Gust Speed 16 mph    
Visibility 8 miles    
Events Snow    
T = Trace of Precipitation, MM = Missing Value Source: NWS Daily Summary

Daily Weather History Graph

Daily Weather History Graph

Search for Another Location

Airport or City:

Trip Planner

Search our weather history database for the weather conditions in past years. The results will help you decide how hot, cold, wet, or windy it might be!

Date:

Astronomy

Feb. 16, 2014 Rise Set
Actual Time 6:53 AM CST 5:29 PM CST
Civil Twilight 6:24 AM CST 5:59 PM CST
Nautical Twilight 5:51 AM CST 6:32 PM CST
Astronomical Twilight 5:18 AM CST 7:05 PM CST
Moon 7:31 PM CST (2/16) 7:19 AM CST (2/16)
Length of Visible Light 11h 34m
Length of Day
10h 36m
Full, 97% of the Moon is Illuminated
Feb 16
Full
Feb 22
Last Quarter
Mar 1
New
Mar 8
First Quarter
Mar 16
Full

Hourly Weather History & Observations

Time (CST) Temp. Windchill Dew Point Humidity Pressure Visibility Wind Dir Wind Speed Gust Speed Precip Events Conditions
12:09 AM 16.0 °F 10.4 °F 12.9 °F 88% 29.93 in 5.0 mi Variable 3.5 mph - N/A   Overcast
12:53 AM 16.0 °F 7.4 °F 12.9 °F 88% 29.99 in 4.0 mi WNW 5.8 mph - N/A   Overcast
1:53 AM 16.0 °F 7.4 °F 12.9 °F 88% 29.99 in 5.0 mi WNW 5.8 mph - N/A   Overcast
2:53 AM 16.0 °F 4.4 °F 12.9 °F 88% 29.99 in 5.0 mi NW 9.2 mph - N/A   Overcast
3:07 AM 17.1 °F 5.8 °F 12.9 °F 84% 29.95 in 6.0 mi NW 9.2 mph - N/A   Overcast
3:53 AM 15.1 °F 6.4 °F 12.0 °F 88% 30.00 in 7.0 mi NW 5.8 mph - N/A   Overcast
4:53 AM 12.0 °F 5.9 °F 9.0 °F 88% 30.04 in 7.0 mi WNW 3.5 mph - N/A   Partly Cloudy
5:38 AM 14.0 °F - 10.9 °F 88% 30.02 in 7.0 mi Calm Calm - N/A   Overcast
5:53 AM 12.9 °F 5.2 °F 10.0 °F 88% 30.09 in 7.0 mi West 4.6 mph - 0.00 in Snow Light Snow
6:53 AM 15.1 °F 6.4 °F 10.9 °F 84% 30.11 in 6.0 mi NW 5.8 mph - 0.00 in Snow Light Snow
7:53 AM 16.0 °F 5.3 °F 10.9 °F 81% 30.15 in 7.0 mi NNW 8.1 mph - 0.00 in Snow Light Snow
8:53 AM 17.1 °F 6.6 °F 10.9 °F 77% 30.19 in 10.0 mi North 8.1 mph - 0.00 in   Mostly Cloudy
9:53 AM 18.0 °F 6.9 °F 10.9 °F 74% 30.23 in 10.0 mi North 9.2 mph - N/A   Scattered Clouds
10:53 AM 19.0 °F 5.6 °F 10.0 °F 68% 30.24 in 10.0 mi North 13.8 mph - N/A   Partly Cloudy
11:53 AM 19.9 °F 7.9 °F 10.0 °F 65% 30.25 in 10.0 mi NNE 11.5 mph - N/A   Clear
12:53 PM 19.9 °F 8.6 °F 10.0 °F 65% 30.24 in 10.0 mi NNE 10.4 mph - N/A   Partly Cloudy
1:53 PM 21.0 °F 11.4 °F 10.0 °F 63% 30.24 in 10.0 mi NNE 8.1 mph - N/A   Partly Cloudy
2:53 PM 19.9 °F 8.6 °F 10.0 °F 65% 30.25 in 10.0 mi NE 10.4 mph - N/A   Mostly Cloudy
3:53 PM 19.0 °F 10.0 °F 8.1 °F 62% 30.28 in 10.0 mi ENE 6.9 mph - N/A   Mostly Cloudy
4:53 PM 16.0 °F 4.4 °F 7.0 °F 68% 30.28 in 10.0 mi NE 9.2 mph - N/A   Mostly Cloudy
5:53 PM 15.1 °F 5.2 °F 6.1 °F 68% 30.29 in 10.0 mi East 6.9 mph - N/A   Mostly Cloudy
6:53 PM 15.1 °F 6.4 °F 6.1 °F 68% 30.30 in 10.0 mi East 5.8 mph - N/A   Mostly Cloudy
7:53 PM 12.9 °F 3.8 °F 5.0 °F 71% 30.30 in 10.0 mi ENE 5.8 mph - N/A   Mostly Cloudy
8:53 PM 14.0 °F 2.9 °F 7.0 °F 74% 30.29 in 10.0 mi ESE 8.1 mph - N/A   Mostly Cloudy
9:53 PM 14.0 °F 5.1 °F 7.0 °F 74% 30.29 in 10.0 mi ESE 5.8 mph - N/A   Scattered Clouds
10:53 PM 16.0 °F 5.3 °F 9.0 °F 74% 30.27 in 10.0 mi SE 8.1 mph - N/A   Mostly Cloudy
11:53 PM 17.1 °F 5.0 °F 10.9 °F 77% 30.26 in 10.0 mi SE 10.4 mph - N/A   Overcast